This demonstration page uses our WeatherBlox Daily Observations layout. Learn more.

Left ArrowRight Arrow

41.12389, -100.76542

Hourly Observations for May 26, 2022

Temp ( °F °C ) Dew Point ( °F °C ) Humidity (%) Winds ( mph kmh ) Pressure ( in mb ) Visibility ( mi km ) Precip ( " mm )
12:53 am 00:53 Clear 48 8.9 41 5 77 77 NNE 7 11 29.89 1012 10 16 0.00 0.00
1:53 am 01:53 Clear 45 7.2 40 4.4 83 83 Calm 29.91 1013 10 16 0.00 0.00
2:53 am 02:53 Clear 45 7.2 40 4.4 83 83 W 5 7 29.91 1013 10 16 0.00 0.00
3:53 am 03:53 Clear 42 5.6 39 3.9 89 89 NNW 3 6 29.92 1013 10 16 0.00 0.00
4:53 am 04:53 Clear 41 5 38 3.3 89 89 NW 7 11 29.93 1014 10 16 0.00 0.00
5:53 am 05:53 Clear 39 3.9 36 2.2 89 89 NW 6 9 29.96 1014 10 16 0.00 0.00
6:53 am 06:53 Sunny 41 5 38 3.3 89 89 WNW 7 11 29.97 1015 10 16 0.00 0.00
7:53 am 07:53 Sunny 48 8.9 42 5.6 80 80 WNW 7 11 29.98 1015 10 16 0.00 0.00
8:53 am 08:53 Sunny 55 12.8 45 7.2 69 69 WNW 7 11 29.99 1016 10 16 0.00 0.00
9:53 am 09:53 Sunny 59 15 45 7.2 60 60 VRB 3 6 30.00 1016 10 16 0.00 0.00
10:53 am 10:53 Sunny 64 17.8 46 7.8 52 52 Calm 29.99 1016 10 16 0.00 0.00
11:53 am 11:53 Sunny 68 20 46 7.8 45 45 VRB 3 6 29.97 1015 10 16 0.00 0.00
12:53 pm 12:53 Sunny 71 21.7 46 7.8 41 41 Calm 29.96 1014 10 16 0.00 0.00
1:53 pm 13:53 Sunny 74 23.3 48 8.9 40 40 NW 9 15 29.93 1014 10 16 0.00 0.00
2:53 pm 14:53 Sunny 77 25 49 9.4 37 37 VRB 5 7 29.91 1013 10 16 0.00 0.00
3:53 pm 15:53 Sunny 80 26.7 47 8.3 31 31 VRB 6 9 29.90 1013 10 16 0.00 0.00
4:53 pm 16:53 Cloudy 82 27.8 46 7.8 28 28 NNW 6 9 29.88 1012 10 16 0.00 0.00
5:53 pm 17:53 Mostly Cloudy 82 27.8 46 7.8 28 28 NW 9 15 29.88 1012 10 16 0.00 0.00
6:53 pm 18:53 Mostly Sunny 82 27.8 43 6.1 25 25 NNW 7 11 29.88 1012 10 16 0.00 0.00
7:53 pm 19:53 Sunny 77 25 51 10.6 40 40 NW 6 9 29.88 1012 10 16 0.00 0.00
8:53 pm 20:53 Sunny 71 21.7 48 8.9 44 44 Calm 29.88 1012 10 16 0.00 0.00
9:53 pm 21:53 Clear 62 16.7 49 9.4 62 62 E 3 6 29.90 1013 10 16 0.00 0.00
10:53 pm 22:53 Clear 58 14.4 48 8.9 70 70 NE 6 9 29.92 1013 10 16 0.00 0.00
11:53 pm 23:53 Clear 56 13.3 47 8.3 72 72 Calm 29.93 1013 10 16 0.00 0.00

Powered by AerisWeather